FW8707 Weather Reports


Display with metric or nautical units.
time (UTC)temp
F
wind
direction
speed
MPH
gust
MPH
rain 1hr
in
rain 24hr
in
rain mn
in
humidity
%
barometer
mb
20260505204524 33 229 1.0 4.0 0.04 0.90 0.83 92 1014.3
20260505204009 33 71 1.0 6.0 0.05 0.90 0.83 92 1014.3
20260505203510 33 11 2.0 6.0 0.05 0.90 0.83 92 1014.2
20260505203027 33 8 1.0 4.0 0.05 0.89 0.82 92 1014.4
20260505202512 33 88 1.0 4.0 0.05 0.89 0.82 92 1014.4
20260505202004 33 57 1.0 6.0 0.04 0.88 0.81 91 1014.6
20260505201511 33 330 1.0 6.0 0.03 0.87 0.80 91 1014.7
20260505201004 33 252 2.0 6.0 0.03 0.87 0.80 91 1014.9
20260505200508 33 321 0.0 7.0 0.04 0.87 0.80 91 1014.7
20260505200014 33 59 2.0 11.0 0.03 0.86 0.79 91 1014.7
20260505195507 33 1 3.0 11.0 0.03 0.86 0.79 91 1014.8
20260505195007 34 10 2.0 9.0 0.03 0.86 0.79 91 1014.7
20260505194520 34 257 3.0 11.0 0.03 0.86 0.79 90 1014.7
20260505194011 34 38 3.0 11.0 0.02 0.85 0.78 90 1014.6
20260505193512 34 70 3.0 9.0 0.03 0.85 0.78 89 1014.6
20260505193021 35 348 4.0 15.0 0.02 0.84 0.77 88 1014.7
20260505192511 36 5 3.0 15.0 0.03 0.84 0.77 87 1014.6
20260505192008 38 340 5.0 11.0 0.03 0.84 0.77 86 1014.7
20260505191533 39 23 1.0 4.0 0.04 0.84 0.77 88 1014.4
20260505191009 39 331 0.0 4.0 0.05 0.84 0.77 89 1014.4
20260505190504 39 33 0.0 3.0 0.04 0.83 0.76 89 1014.4
20260505190014 39 23 0.0 3.0 0.05 0.83 0.76 89 1014.4
20260505185509 39 285 1.0 2.0 0.05 0.83 0.76 88 1014.5
20260505185005 39 281 0.0 2.0 0.06 0.83 0.76 89 1014.6
20260505184514 39 330 0.0 2.0 0.07 0.83 0.76 90 1014.6
20260505184006 39 325 0.0 2.0 0.08 0.83 0.76 89 1014.6
20260505183509 38 328 0.0 2.0 0.07 0.82 0.75 90 1014.6
20260505183022 38 331 0.0 2.0 0.08 0.82 0.75 89 1014.4
20260505182508 38 331 0.0 2.0 0.08 0.81 0.74 89 1014.5
20260505182018 38 335 0.0 2.0 0.08 0.81 0.74 89 1014.6
20260505181523 37 279 0.0 2.0 0.08 0.80 0.73 87 1014.8
20260505181012 37 279 0.0 1.0 0.08 0.79 0.72 87 1014.9
20260505180510 37 279 0.0 1.0 0.09 0.79 0.72 87 1015.0
20260505180028 37 279 0.0 2.0 0.09 0.78 0.71 88 1015.0
20260505175512 38 279 0.0 2.0 0.10 0.78 0.71 88 1015.0
20260505175004 38 279 0.0 0.0 0.11 0.77 0.70 87 1015.0
20260505174511 38 279 0.0 1.0 0.11 0.76 0.69 88 1015.0
20260505174010 38 279 0.0 1.0 0.11 0.75 0.68 89 1014.9
20260505173509 38 279 0.0 2.0 0.12 0.75 0.68 89 1014.9
20260505173019 38 279 0.0 2.0 0.12 0.74 0.67 89 1014.9
20260505172512 38 279 0.0 2.0 0.12 0.73 0.66 88 1014.9
20260505172008 38 275 0.0 2.0 0.14 0.73 0.66 88 1015.1
20260505171531 38 162 0.0 5.0 0.14 0.72 0.65 88 1015.4
20260505171008 38 308 2.0 5.0 0.15 0.71 0.64 89 1015.6
20260505170509 38 308 2.0 4.0 0.15 0.70 0.63 89 1015.5
20260505170025 38 154 1.0 3.0 0.15 0.69 0.62 88 1015.3
20260505165510 38 270 0.0 2.0 0.16 0.68 0.61 90 1015.3
20260505165011 38 270 0.0 2.0 0.15 0.66 0.58 90 1015.3
20260505164527 38 270 0.0 2.0 0.15 0.65 0.58 90 1015.1
20260505164011 37 270 0.0 1.0 0.16 0.64 0.57 91 1015.2
20260505163508 37 270 0.0 0.0 0.16 0.63 0.56 91 1015.2
20260505163014 37 270 0.0 0.0 0.16 0.62 0.55 91 1015.1
20260505162506 37 270 0.0 0.0 0.16 0.61 0.54 91 1015.2
20260505162010 36 270 0.0 0.0 0.15 0.58 0.52 92 1015.2
20260505161518 36 270 0.0 0.0 0.15 0.58 0.51 91 1015.3
20260505161008 36 270 0.0 0.0 0.15 0.56 0.49 92 1015.3
20260505160511 35 270 0.0 2.0 0.15 0.55 0.48 92 1015.5
20260505153036 35 270 0.0 1.0 0.08 0.46 0.39 92 1015.6
20260505152511 35 270 0.0 1.0 0.07 0.45 0.38 92 1015.5
20260505152011 34 270 0.0 3.0 0.06 0.44 0.37 92 1015.6
20260505151515 34 270 0.0 3.0 0.05 0.43 0.36 92 1015.6
20260505151006 34 275 0.0 1.0 0.03 0.41 0.34 92 1015.6
20260505150509 34 275 0.0 1.0 0.02 0.40 0.33 92 1015.7
20260505140511 33 275 0.0 1.0 0.00 0.38 0.31 91 1015.7
20260505125011 33 270 0.0 1.0 0.03 0.38 0.31 90 1015.2
20260505124517 33 270 0.0 0.0 0.04 0.38 0.31 90 1015.0
20260505124010 34 270 0.0 2.0 0.05 0.38 0.31 90 1014.9
20260505123506 34 270 0.0 2.0 0.05 0.38 0.31 90 1015.0
20260505123003 34 281 0.0 1.0 0.05 0.38 0.31 90 1015.0
20260505122504 34 260 0.0 1.0 0.05 0.38 0.31 90 1015.0
20260505122004 35 260 0.0 3.0 0.05 0.38 0.31 90 1014.9
20260505121506 35 260 0.0 3.0 0.05 0.38 0.31 90 1014.9
20260505121005 35 260 1.0 3.0 0.04 0.37 0.30 90 1014.9
20260505120508 35 282 0.0 4.0 0.04 0.37 0.30 91 1014.9
20260505115505 35 300 0.0 3.0 0.04 0.36 0.29 91 1014.9
20260505114003 36 340 0.0 6.0 0.02 0.33 0.26 91 1014.6
20260505113504 36 44 1.0 6.0 0.02 0.33 0.26 91 1014.6
20260505113007 35 354 2.0 6.0 0.02 0.33 0.26 92 1014.6
20260505112507 35 294 0.0 4.0 0.02 0.33 0.26 91 1014.5
20260505112007 35 275 0.0 4.0 0.03 0.33 0.26 91 1014.5
20260505111505 35 308 1.0 4.0 0.03 0.33 0.26 91 1014.5
20260505111005 35 254 1.0 4.0 0.04 0.33 0.26 91 1014.5
20260505110504 35 296 1.0 4.0 0.04 0.33 0.26 91 1014.3
20260505102007 35 17 2.0 10.0 0.06 0.30 0.23 89 1014.1
20260505101512 36 219 2.0 10.0 0.07 0.30 0.23 89 1014.1
20260505101006 36 259 2.0 8.0 0.06 0.29 0.22 89 1014.1
20260505100507 37 246 3.0 9.0 0.06 0.29 0.22 89 1014.0
20260505100011 37 7 2.0 11.0 0.06 0.28 0.21 89 1013.9
20260505095507 37 354 4.0 11.0 0.05 0.27 0.20 89 1014.0
20260505095009 38 256 5.0 11.0 0.04 0.26 0.19 89 1013.9
20260505094514 38 293 2.0 10.0 0.04 0.25 0.18 90 1013.7
20260505094007 38 49 3.0 10.0 0.04 0.25 0.18 89 1013.8
20260505093505 38 233 3.0 13.0 0.05 0.25 0.18 89 1013.8
20260505093014 38 259 3.0 13.0 0.04 0.24 0.17 88 1013.7
20260505092505 39 281 4.0 12.0 0.05 0.24 0.17 88 1013.7
20260505092009 40 281 4.0 9.0 0.06 0.24 0.17 89 1013.5
20260505091508 40 283 2.0 7.0 0.06 0.23 0.16 89 1013.4
20260505091007 40 283 2.0 10.0 0.08 0.23 0.16 89 1013.3
20260505090504 40 282 2.0 10.0 0.09 0.23 0.16 89 1013.3
20260505090011 41 287 2.0 9.0 0.08 0.22 0.15 89 1013.4
20260505085507 41 282 3.0 9.0 0.08 0.22 0.15 89 1013.5
20260505085007 41 279 3.0 8.0 0.08 0.22 0.15 89 1013.4
20260505084510 41 287 2.0 10.0 0.07 0.21 0.14 88 1013.4
20260505084004 42 281 3.0 10.0 0.07 0.21 0.14 89 1013.4
20260505083504 42 281 1.0 8.0 0.06 0.20 0.13 88 1013.2
20260505083011 42 282 2.0 8.0 0.06 0.20 0.13 88 1013.2
20260505082504 42 282 2.0 7.0 0.05 0.19 0.12 88 1013.1
20260505082006 42 281 1.0 9.0 0.05 0.18 0.11 88 1013.2
20260505081519 42 285 1.0 9.0 0.04 0.17 0.10 88 1013.2
20260505081006 42 281 1.0 8.0 0.02 0.15 0.08 88 1013.1
20260505080510 42 280 2.0 6.0 0.01 0.14 0.07 88 1013.1
20260505080010 42 270 0.0 7.0 0.01 0.14 0.07 88 1013.1
20260505075510 42 281 1.0 9.0 0.02 0.14 0.07 87 1013.1
20260505075007 43 279 1.0 9.0 0.03 0.14 0.07 87 1013.1
20260505073514 43 287 3.0 7.0 0.07 0.14 0.07 86 1013.2
20260505072506 43 279 1.0 11.0 0.07 0.14 0.07 86 1013.2
20260505072008 43 279 1.0 11.0 0.06 0.13 0.06 86 1013.2
20260505071514 43 275 3.0 11.0 0.06 0.13 0.06 85 1013.0
20260505071005 43 280 2.0 10.0 0.06 0.13 0.06 85 1013.1
20260505070508 44 279 2.0 12.0 0.06 0.13 0.06 84 1013.0
20260505070012 44 281 3.0 12.0 0.06 0.13 0.06 84 1013.1
20260505065507 44 282 2.0 12.0 0.05 0.12 0.05 83 1013.2
20260505065007 44 287 4.0 12.0 0.04 0.11 0.04 83 1013.2
20260505064514 45 279 3.0 11.0 0.02 0.09 0.02 81 1013.1
20260505064010 45 281 4.0 11.0 0.01 0.08 0.01 81 1013.3
20260505063503 45 285 4.0 10.0 0.00 0.07 0.00 79 1013.0
20260505063008 46 285 4.0 11.0 0.00 0.07 0.00 78 1012.8
20260505062507 46 281 3.0 11.0 0.00 0.07 0.00 77 1012.6
20260505062003 46 281 3.0 14.0 0.00 0.07 0.00 77 1012.5
20260505061511 46 282 4.0 14.0 0.00 0.07 0.00 76 1012.4
20260505061004 47 279 6.0 13.0 0.00 0.07 0.00 76 1012.4
20260505060511 47 280 2.0 13.0 0.00 0.07 0.00 77 1012.2
20260505060017 48 279 4.0 13.0 0.00 0.07 0.00 77 1012.1
20260505055507 49 281 5.0 13.0 0.00 0.07 0.07 82 1012.1
20260505055007 49 287 0.0 1.0 0.00 0.07 0.07 83 1012.1
20260505054530 49 287 0.0 0.0 0.00 0.07 0.07 82 1011.9
20260505054008 49 287 0.0 0.0 0.00 0.07 0.07 83 1011.7
20260505053511 49 287 0.0 1.0 0.00 0.07 0.07 83 1011.6
20260505053016 49 287 0.0 1.0 0.00 0.07 0.07 83 1011.5
20260505052503 49 287 0.0 1.0 0.00 0.07 0.07 83 1011.5
20260505052003 49 287 0.0 1.0 0.00 0.07 0.07 83 1011.4
20260505051511 49 287 0.0 0.0 0.00 0.07 0.07 83 1011.4
20260505051004 49 287 0.0 0.0 0.00 0.07 0.07 82 1011.3
20260505050512 49 287 0.0 0.0 0.00 0.07 0.07 82 1011.3
20260505041507 49 287 0.0 2.0 0.00 0.07 0.07 81 1011.3
20260505041005 49 287 0.0 0.0 0.00 0.07 0.07 81 1011.2
20260505040507 50 287 0.0 1.0 0.00 0.07 0.07 81 1011.2
20260505040014 49 287 0.0 2.0 0.00 0.07 0.07 81 1011.2
20260505035504 49 287 0.0 2.0 0.00 0.07 0.07 81 1011.1
20260505035004 49 287 0.0 2.0 0.00 0.07 0.07 80 1011.2
20260505034524 49 285 0.0 4.0 0.00 0.07 0.07 80 1011.2
20260505034008 49 285 0.0 4.0 0.00 0.07 0.07 81 1011.2
20260505033506 50 285 0.0 4.0 0.00 0.07 0.07 81 1011.2
20260505033018 50 279 1.0 5.0 0.00 0.07 0.07 81 1011.1
20260505032507 50 279 1.0 5.0 0.00 0.07 0.07 83 1011.2
20260505032008 50 270 0.0 0.0 0.00 0.07 0.07 83 1011.2
20260505031516 50 270 0.0 1.0 0.00 0.07 0.07 84 1011.2
20260505031007 50 270 0.0 1.0 0.00 0.07 0.07 84 1011.2
20260505030508 50 270 0.0 1.0 0.00 0.07 0.07 85 1011.2
20260505030036 50 270 0.0 1.0 0.00 0.07 0.07 85 1011.0
20260505025513 50 270 0.0 0.0 0.00 0.07 0.07 86 1010.9
20260505025008 50 270 0.0 1.0 0.01 0.07 0.07 86 1010.9
20260505023507 50 270 0.0 0.0 0.01 0.07 0.07 85 1010.6
20260505023016 50 270 0.0 0.0 0.01 0.07 0.07 85 1010.5
20260505022510 50 270 0.0 0.0 0.01 0.07 0.07 85 1010.4
20260505022008 50 270 0.0 0.0 0.01 0.07 0.07 84 1010.3
20260505021523 50 270 0.0 0.0 0.01 0.07 0.07 84 1010.3
20260505021007 50 270 0.0 1.0 0.01 0.07 0.07 83 1010.3
20260505020507 50 270 0.0 2.0 0.02 0.07 0.07 84 1010.3
20260505020019 50 270 0.0 2.0 0.02 0.07 0.07 83 1010.2
20260505015509 50 275 0.0 1.0 0.02 0.07 0.07 83 1010.4
20260505015009 50 275 0.0 1.0 0.02 0.06 0.06 82 1010.6
20260505012509 50 279 1.0 5.0 0.03 0.06 0.06 81 1010.7
20260505012011 50 285 0.0 5.0 0.03 0.06 0.06 80 1010.4
20260505011515 51 286 1.0 7.0 0.03 0.06 0.06 80 1010.4
20260505011007 51 279 1.0 9.0 0.04 0.06 0.06 80 1010.5
20260505010507 51 285 1.0 9.0 0.03 0.05 0.05 80 1010.7
20260505010020 51 279 2.0 8.0 0.03 0.05 0.05 79 1010.6
20260505005512 51 279 3.0 8.0 0.03 0.05 0.05 79 1010.6
20260505005008 52 279 3.0 9.0 0.02 0.04 0.04 78 1010.6
20260505004536 52 287 4.0 10.0 0.02 0.04 0.04 77 1010.6
20260505004010 53 279 4.0 10.0 0.02 0.04 0.04 75 1010.6
20260505003504 53 287 4.0 11.0 0.01 0.03 0.03 74 1010.7
20260505003011 54 270 4.0 11.0 0.01 0.03 0.03 71 1010.6
20260505002505 54 270 4.0 11.0 0.03 0.03 0.03 69 1010.5
20260505002008 55 270 1.0 6.0 0.03 0.03 0.03 70 1010.4
20260505001515 55 270 0.0 4.0 0.03 0.03 0.03 71 1010.3
20260505001007 55 270 0.0 6.0 0.02 0.02 0.02 71 1010.2
20260505000511 55 270 1.0 6.0 0.02 0.02 0.02 70 1010.3
20260505000023 56 270 1.0 4.0 0.02 0.02 0.02 70 1010.3
20260504235507 56 270 0.0 1.0 0.02 0.02 0.02 67 1010.1
20260504235008 56 270 0.0 1.0 0.02 0.02 0.02 64 1010.0
20260504234506 56 270 0.0 2.0 0.02 0.02 0.02 62 1010.0
20260504234003 56 270 0.0 3.0 0.02 0.02 0.02 65 1010.0
20260504233504 57 270 0.0 5.0 0.02 0.02 0.02 61 1010.0
20260504233009 58 270 0.0 8.0 0.02 0.02 0.02 59 1010.1
20260504232507 60 270 0.0 18.0 0.00 0.00 0.00 52 1010.2
20260504232005 60 270 5.0 18.0 0.00 0.00 0.00 49 1010.0
20260504231511 61 270 2.0 11.0 0.00 0.00 0.00 47 1010.0
20260504231011 62 270 0.0 9.0 0.00 0.00 0.00 43 1009.7
20260504230507 62 270 2.0 9.0 0.00 0.00 0.00 43 1009.4
20260504230018 62 270 3.0 8.0 0.00 0.00 0.00 42 1009.2
20260504225508 62 270 2.0 10.0 0.00 0.00 0.00 41 1009.0
20260504225010 63 270 3.0 10.0 0.00 0.00 0.00 41 1009.0
20260504224529 63 279 4.0 10.0 0.00 0.00 0.00 40 1008.8
20260504224011 64 279 2.0 11.0 0.00 0.00 0.00 38 1008.7
20260504223009 65 279 6.0 15.0 0.00 0.00 0.00 37 1008.7
20260504222504 66 280 5.0 15.0 0.00 0.00 0.00 36 1008.7
20260504222007 67 296 4.0 11.0 0.00 0.00 0.00 35 1008.7
20260504221513 67 96 3.0 11.0 0.00 0.00 0.00 36 1008.7
20260504221005 67 43 3.0 11.0 0.00 0.00 0.00 36 1008.7
20260504220505 66 352 2.0 11.0 0.00 0.00 0.00 37 1008.8
20260504220014 66 318 3.0 8.0 0.00 0.00 0.00 38 1008.9
20260504215509 65 296 2.0 6.0 0.00 0.00 0.00 38 1009.0
20260504215010 65 13 0.0 4.0 0.00 0.00 0.00 40 1009.0
20260504214520 64 11 1.0 4.0 0.00 0.00 0.00 39 1009.2
20260504214009 64 281 0.0 4.0 0.00 0.00 0.00 40 1009.2
20260504213509 64 286 2.0 4.0 0.00 0.00 0.00 40 1009.1
20260504213035 64 285 0.0 3.0 0.00 0.00 0.00 40 1009.0
20260504212510 63 287 0.0 3.0 0.00 0.00 0.00 40 1009.2
20260504212005 63 283 0.0 5.0 0.00 0.00 0.00 42 1009.1
20260504211507 63 283 1.0 7.0 0.00 0.00 0.00 41 1009.2
20260504211004 63 283 1.0 8.0 0.00 0.00 0.00 41 1009.1
20260504210506 63 280 2.0 10.0 0.00 0.00 0.00 40 1009.2
20260504210015 64 279 4.0 13.0 0.00 0.00 0.00 39 1009.3
20260504205507 64 320 4.0 17.0 0.00 0.00 0.00 38 1009.1
20260504205007 65 27 8.0 25.0 0.00 0.00 0.00 37 1009.1